Weather History for Beckley, WV

Change the Weather History Date:

Saturday, January 5, 2013

  Actual Average Record
Temperature  
Mean Temperature 30 °F 31 °F  
Max Temperature 42 °F 39 °F 69 °F (1950)
Min Temperature 17 °F 23 °F -10 °F (1981)
Degree Days  
Heating Degree Days 35 34  
Month to date heating degree days 183 170  
Since 1 July heating degree days 2205 2263  
Cooling Degree Days 0 0  
Month to date cooling degree days 0 0  
Year to date cooling degree days 0 0  
Moisture  
Dew Point 20 °F    
Average Humidity 68    
Maximum Humidity 91    
Minimum Humidity 44    
Precipitation  
Precipitation T in 0.09 in 0.92 in (2007)
Month to date precipitation 0.14 0.46  
Year to date precipitation 0.14 0.46  
Snow  
Snow 0.00 in - - ()
Month to date snowfall 0.2  
Since 1 September snowfall 38.4  
Snow Depth 0.00 in    
Sea Level Pressure  
Sea Level Pressure 30.34 in    
Wind  
Wind Speed 3 mph (SW)    
Max Wind Speed 13 mph    
Max Gust Speed 20 mph    
Visibility 10 miles    
Events Rain    
T = Trace of Precipitation, MM = Missing Value Source: NWS Daily Summary

Daily Weather History Graph

Daily Weather History Graph

Search for Another Location

Airport:

Trip Planner

Search our weather history database for the weather conditions in past years. The results will help you decide how hot, cold, wet, or windy it might be!

Date:

Astronomy

Jan. 05, 2013 Rise Set
Actual Time 7:40 AM EST 5:20 PM EST
Civil Twilight 7:11 AM EST 5:49 PM EST
Nautical Twilight 6:38 AM EST 6:21 PM EST
Astronomical Twilight 6:06 AM EST 6:53 PM EST
Moon 12:49 AM EST (1/5) 12:05 PM EST (1/5)
Length of Visible Light 10h 37m
Length of Day
9h 39m
Last Quarter, 44% of the Moon is Illuminated
Jan 5
Last Quarter
Jan 11
New
Jan 18
First Quarter
Jan 26
Full
Feb 3
Last Quarter

Hourly Weather History & Observations

Time (EST) Temp. Windchill Dew Point Humidity Pressure Visibility Wind Dir Wind Speed Gust Speed Precip Events Conditions
12:51 AM 25.0 °F 17.1 °F 18.0 °F 75% 30.40 in 10.0 mi West 6.9 mph - N/A   Clear
1:51 AM 24.1 °F 18.2 °F 18.0 °F 77% 30.41 in 10.0 mi WSW 4.6 mph - N/A   Clear
2:51 AM 23.0 °F 15.8 °F 18.0 °F 81% 30.43 in 10.0 mi West 5.8 mph - N/A   Clear
3:32 AM 21.2 °F 16.4 °F 17.6 °F 86% 30.33 in 10.0 mi SW 3.5 mph - N/A   Mostly Cloudy
3:51 AM 24.1 °F 17.0 °F 19.0 °F 81% 30.44 in 10.0 mi SW 5.8 mph - N/A   Mostly Cloudy
4:23 AM 23.0 °F 17.0 °F 17.6 °F 80% 30.33 in 10.0 mi SW 4.6 mph - N/A   Partly Cloudy
4:51 AM 21.2 °F 14.9 °F 17.6 °F 86% 30.30 in 10.0 mi WNW 4.6 mph - N/A   Clear
5:51 AM 19.9 °F - 17.1 °F 89% 30.43 in 10.0 mi Calm Calm - N/A   Clear
6:51 AM 19.4 °F - 15.8 °F 86% 30.31 in 10.0 mi Calm Calm - N/A   Clear
7:51 AM 19.0 °F 13.9 °F 15.1 °F 85% 30.43 in 9.0 mi South 3.5 mph - N/A   Clear
8:51 AM 23.0 °F 17.0 °F 19.0 °F 85% 30.45 in 10.0 mi SW 4.6 mph - N/A   Clear
9:51 AM 26.6 °F 20.0 °F 19.4 °F 74% 30.34 in 10.0 mi SW 5.8 mph - N/A   Clear
10:51 AM 30.0 °F 25.2 °F 21.0 °F 69% 30.44 in 10.0 mi WSW 4.6 mph - N/A   Clear
11:51 AM 32.0 °F - 19.0 °F 59% 30.39 in 10.0 mi Calm Calm - N/A   Clear
12:51 PM 36.0 °F - 19.0 °F 50% 30.34 in 10.0 mi Calm Calm - N/A   Clear
1:51 PM 36.0 °F - 19.0 °F 50% 30.31 in 10.0 mi Calm Calm - N/A   Clear
2:51 PM 39.9 °F - 19.0 °F 43% 30.29 in 10.0 mi Calm Calm - N/A   Clear
3:51 PM 37.9 °F - 21.9 °F 53% 30.29 in 10.0 mi Calm Calm - N/A   Clear
4:51 PM 37.0 °F - 21.0 °F 52% 30.27 in 10.0 mi Calm Calm - N/A   Clear
5:51 PM 37.0 °F - 21.0 °F 52% 30.28 in 10.0 mi Calm Calm - N/A   Overcast
6:51 PM 37.0 °F - 21.9 °F 54% 30.28 in 10.0 mi Calm Calm - 0.00 in Rain Light Rain
7:51 PM 36.0 °F 33.3 °F 23.0 °F 59% 30.28 in 10.0 mi WSW 3.5 mph - 0.00 in   Overcast
8:51 PM 35.1 °F 32.2 °F 25.0 °F 67% 30.26 in 10.0 mi SSE 3.5 mph - N/A   Mostly Cloudy
9:51 PM 36.0 °F - 24.1 °F 62% 30.26 in 10.0 mi Calm Calm - 0.00 in Rain Light Rain
10:51 PM 35.1 °F 29.3 °F 23.0 °F 61% 30.27 in 10.0 mi SW 6.9 mph - 0.00 in Rain Light Rain
11:51 PM 33.8 °F 25.8 °F 24.8 °F 70% 30.18 in 10.0 mi WSW 10.4 mph 19.6 mph N/A   Overcast